SCP
1 1 1 1 1 1 1 0 0 0 1 0 0 0 0 0 0 0 0 0 0 1 1 1 2 2 2 2 1 1 1 1 1 1 1 1 1 1 1 1 1 1 1 1 1 2 2 2 1
1 1 1 1 1 1 0 0 0 0 1 1 0 0 0 0 0 0 0 0 0 1 1 1 2 2 2 2 1 1 1 1 1 1 1 1 1 1 2 2 1 1 1 1 1 2 2 2 1
1 1 1 1 1 1 0 0 0 0 1 1 0 0 0 0 0 0 0 0 0 0 1 1 2 2 2 2 2 1 1 1 1 1 1 1 1 1 1 1 1 1 1 1 1 2 2 2 1
1 1 1 1 1 0 0 0 0 0 1 1 1 0 0 0 0 0 0 0 0 0 1 1 2 2 2 2 2 1 1 1 1 1 1 1 1 1 1 1 1 1 1 1 1 2 2 2 2
1 1 1 0 0 0 0 0 0 1 1 1 1 0 0 1 1 1 1 0 0 0 0 1 1 2 2 2 2 2 1 1 1 1 1 1 1 1 1 1 1 1 1 1 2 2 2 2 1
1 1 1 0 0 0 0 0 0 1 1 1 1 0 0 1 1 1 1 0 0 0 0 1 1 1 1 1 1 1 1 1 1 1 1 1 1 1 1 1 1 1 1 1 2 2 1 1 1
1 1 0 0 0 0 0 0 0 1 1 1 0 0 0 1 1 1 0 0 0 0 1 1 1 1 1 1 1 1 1 1 1 1 1 1 1 1 1 1 1 1 1 1 1 1 1 1 1
1 1 0 0 0 0 0 0 0 1 1 0 0 0 0 1 1 1 0 0 0 1 1 1 1 1 1 1 1 1 1 1 2 2 2 1 1 1 1 1 1 1 1 1 1 1 1 1 1
1 1 0 0 0 0 0 0 1 1 1 1 0 0 0 1 1 1 1 1 1 1 1 1 1 0 0 1 1 1 1 2 2 2 2 2 1 1 1 1 1 1 1 1 1 1 1 1 1
1 1 0 0 0 0 0 0 1 1 1 1 1 1 1 1 1 1 1 1 1 1 0 1 1 0 0 0 1 1 1 2 2 2 2 2 2 2 1 1 1 1 1 1 1 1 1 1 1
1 1 0 0 0 0 0 0 1 1 1 1 1 1 1 1 1 1 1 1 1 0 0 0 1 1 0 1 1 1 1 2 2 2 2 2 2 1 1 1 1 1 1 1 1 1 1 1 1
1 1 0 0 0 0 0 0 1 1 1 1 1 1 1 1 1 1 0 0 0 0 0 1 1 1 1 1 1 1 1 2 2 2 2 2 2 1 1 1 1 1 1 1 1 1 1 1 1
1 1 0 0 0 0 0 1 1 1 1 1 1 1 1 1 1 1 0 0 0 0 0 1 1 1 1 2 1 1 1 1 2 2 2 3 2 2 1 1 1 1 1 1 1 1 2 2 2
0 0 0 0 0 0 1 1 1 1 1 1 1 1 1 1 1 1 0 0 0 0 0 0 1 1 1 2 1 1 1 1 1 2 2 2 2 2 1 1 1 1 1 1 2 2 2 2 2
0 0 0 0 0 0 1 1 1 1 1 1 1 0 1 1 1 1 1 1 1 1 1 1 1 1 1 1 1 1 1 1 1 2 2 2 2 2 1 1 1 1 1 1 2 2 2 1 1
0 0 0 0 0 0 0 1 1 1 1 1 0 0 0 1 1 1 1 1 1 1 1 1 1 1 1 1 1 1 1 1 2 2 2 2 2 2 1 1 1 1 1 1 2 2 1 1 1
0 0 0 0 0 0 0 1 1 1 1 1 0 0 0 0 0 0 0 1 1 1 1 1 1 1 1 1 1 1 2 2 3 3 3 3 2 2 1 1 1 1 2 2 2 2 1 1 1
0 0 0 0 0 0 0 1 1 1 1 1 1 0 0 0 0 0 0 1 1 2 1 1 1 1 1 1 1 2 2 3 4 5 4 4 3 3 2 2 2 2 2 3 2 2 1 1 1
0 0 0 0 0 0 0 1 1 1 1 1 1 1 0 0 0 1 1 1 1 1 1 1 1 1 1 1 2 3 4 5 6 6 5 4 4 3 3 3 2 2 2 3 2 2 1 1 1
0 0 0 0 0 0 0 1 1 1 1 1 1 1 1 1 1 1 1 1 1 1 2 1 1 1 2 2 2 4 6 7 8 7 5 3 3 3 3 3 2 2 2 2 2 1 1 1 1
0 0 0 0 0 0 0 1 1 1 1 1 1 1 1 1 1 1 1 1 1 2 2 2 1 2 2 2 2 3 5 7 8 7 5 3 3 2 2 2 2 1 1 1 1 1 1 1 1
0 0 0 0 0 0 0 0 1 1 1 1 1 1 1 1 1 1 1 1 1 2 2 2 2 2 3 3 3 3 3 5 5 5 5 4 3 3 2 2 2 2 1 1 1 1 1 1 1
0 0 0 0 0 0 0 0 1 1 1 1 1 1 1 1 2 1 1 2 2 2 2 2 2 4 5 5 4 3 3 4 5 6 6 5 4 3 3 3 3 2 2 2 2 1 2 2 2
0 0 0 0 0 0 0 0 0 1 1 1 1 1 1 2 2 2 2 2 2 2 2 2 3 4 5 5 4 3 3 4 6 7 7 5 4 4 3 3 3 3 2 2 2 2 2 2 2
0 0 0 0 0 0 0 0 0 1 1 1 1 1 1 2 3 4 4 4 5 4 3 3 3 4 4 3 3 3 3 5 6 7 7 5 4 4 3 3 3 3 3 2 2 2 2 2 2
0 0 0 0 0 0 0 0 1 1 1 1 1 1 2 2 3 4 5 6 7 5 4 3 4 4 4 3 3 3 4 5 6 6 6 5 4 4 3 3 3 3 3 3 3 3 2 2 2
0 0 0 0 0 0 0 0 1 1 1 1 1 2 2 3 4 5 6 6 5 4 3 3 4 6 6 4 3 4 4 5 5 5 5 5 5 4 3 4 4 4 4 4 3 3 3 2 2
0 0 0 0 0 0 0 0 1 1 1 1 2 2 2 3 5 6 6 4 4 3 3 4 6 8 7 5 4 4 4 4 4 4 5 6 6 5 4 4 4 4 4 4 3 3 2 2 2
0 0 0 1 0 0 0 0 1 1 1 1 2 2 2 3 5 6 5 4 4 4 4 5 7 9 8 6 5 4 4 4 4 5 7 8 7 5 4 4 4 4 4 4 3 2 2 2 2
0 0 0 1 1 0 0 1 1 1 1 1 2 2 2 3 4 5 5 4 4 4 4 5 6 8 9 7 5 5 5 4 4 6 8 8 6 4 4 4 4 5 4 3 3 2 2 2 2
Wind_Speed
10 8 5 5 5 2 9 9 8 7 6 6 6 4 7 8 8 8 6 6 6 7 8 8 6 6 6 7 7 8 8 8 8 9 10 10 10 11 11 11 11 11 10 10 10 10 10 10 10
5 4 5 5 1 6 10 9 9 8 7 5 5 5 7 9 8 8 7 6 7 7 7 7 8 6 7 7 7 7 8 8 9 9 10 10 10 10 10 10 10 10 10 10 10 10 10 9 9
4 6 5 2 5 8 9 9 9 8 6 4 5 6 7 7 7 6 8 7 7 8 7 9 7 7 7 7 7 7 8 8 8 9 9 9 9 9 10 10 9 9 8 9 9 9 9 9 9
4 5 4 1 9 10 8 7 6 6 6 5 5 8 8 7 4 7 9 8 8 8 8 10 7 7 7 7 7 7 7 7 8 8 8 8 8 8 9 9 8 8 7 8 8 9 9 8 8
5 4 1 6 10 9 8 6 4 5 5 6 6 9 9 6 7 10 9 7 8 8 8 10 8 6 6 7 7 7 7 7 7 7 7 7 7 8 8 8 7 7 7 7 7 8 7 7 7
4 4 2 7 9 7 7 5 4 6 7 6 7 9 8 6 8 8 8 7 7 8 8 10 9 6 6 6 6 6 7 7 7 7 7 7 7 8 8 8 8 8 7 6 6 6 6 6 6
4 2 5 7 7 8 7 5 5 6 7 6 5 7 8 8 8 8 8 7 7 7 7 7 7 8 7 6 6 6 6 6 6 6 6 6 7 7 7 7 8 7 7 6 6 5 6 5 5
4 2 4 6 6 8 6 5 5 5 7 6 3 5 8 9 9 8 8 8 7 6 6 6 5 5 5 7 7 5 6 5 5 6 6 6 7 7 7 8 7 6 6 5 5 5 5 5 5
5 2 5 6 5 6 5 5 6 5 7 5 4 6 11 13 11 9 8 8 7 6 5 5 5 5 4 4 7 5 5 5 4 5 5 4 4 5 6 6 7 6 5 5 5 4 4 5 6
4 2 7 5 4 4 4 4 5 4 6 6 8 10 13 12 10 9 9 8 8 7 6 4 4 4 4 3 4 3 3 4 2 2 3 2 2 2 3 8 6 6 5 6 5 5 6 7 5
1 3 4 3 3 3 5 4 3 3 4 4 8 12 13 12 10 8 7 7 7 7 6 5 4 3 3 2 2 2 1 2 3 3 2 1 2 2 2 3 5 5 6 5 6 6 4 3 1
1 2 2 2 2 2 3 4 4 2 5 5 8 13 13 11 10 8 7 6 6 6 5 5 4 3 2 2 2 1 1 2 2 3 1 2 1 1 2 1 1 2 2 2 2 2 2 2 2
1 1 1 1 2 2 3 3 4 4 5 7 10 12 12 11 9 7 6 6 6 5 5 5 4 3 2 2 0 2 1 1 2 2 2 0 1 1 1 1 0 1 1 3 3 2 2 3 3
2 2 0 1 3 4 4 4 4 5 6 8 10 11 11 10 9 8 7 6 6 5 5 5 4 5 3 3 2 1 1 1 1 2 2 0 0 1 1 2 1 1 1 1 1 2 3 3 2
3 3 3 3 4 4 5 5 4 7 8 9 10 10 10 9 9 8 7 7 6 6 5 5 5 5 4 3 2 2 1 2 1 1 2 1 0 1 1 0 1 1 2 2 2 2 2 3 3
6 6 3 4 4 4 6 3 6 8 9 8 9 9 9 9 9 8 7 6 6 6 6 5 5 5 5 3 2 1 1 1 1 1 1 1 0 0 1 1 0 1 1 1 2 2 1 1 1
6 4 2 4 4 4 7 2 7 8 9 8 8 9 9 9 9 8 8 7 6 6 6 6 5 5 5 4 3 2 1 1 1 1 1 1 1 1 1 0 1 1 1 1 1 1 0 1 0
3 3 2 2 3 6 7 4 6 9 8 8 8 8 9 9 10 9 8 7 7 7 6 6 6 5 5 4 3 2 2 2 1 1 0 0 1 1 1 1 1 1 1 0 0 1 0 1 1
5 6 4 1 2 6 6 6 7 9 9 9 9 9 9 9 9 9 9 9 8 8 7 7 6 6 5 4 4 3 3 2 2 1 1 1 1 1 1 1 1 1 0 0 1 1 2 1 1
8 8 5 3 2 5 5 6 6 8 9 9 9 9 9 9 9 10 10 10 10 9 8 8 7 6 6 4 3 2 1 1 1 1 1 1 1 1 2 1 1 1 0 0 0 1 1 0 1
9 8 5 3 3 6 7 7 6 7 8 8 8 8 8 8 9 10 10 10 10 10 10 8 7 7 6 5 4 3 3 3 2 2 2 2 2 2 1 1 2 1 2 1 1 1 2 1 1
7 4 5 5 7 4 5 4 6 7 8 9 9 9 9 9 9 10 11 11 11 10 9 9 8 7 7 6 5 5 4 3 2 2 2 2 2 2 2 2 2 2 1 0 2 1 2 2 2
5 2 5 7 8 7 6 7 3 7 7 9 9 9 9 8 9 10 10 11 10 10 9 8 8 7 7 6 6 5 4 3 3 2 2 2 3 3 2 2 2 2 2 1 1 0 3 2 2
5 6 6 8 8 8 5 7 3 4 5 5 7 8 8 7 7 8 9 8 9 9 9 9 8 8 7 7 6 6 5 4 3 3 2 3 2 3 3 2 2 2 2 1 2 2 3 2 2
10 10 7 8 8 5 3 7 2 1 2 3 5 7 7 7 8 8 9 9 9 9 9 9 9 8 8 8 7 6 6 6 5 4 3 3 2 2 3 2 2 2 2 2 2 3 2 2 2
11 12 9 7 6 4 6 6 1 2 2 3 4 5 7 8 8 8 8 8 8 8 8 8 8 8 7 7 7 6 6 5 4 4 3 3 2 2 2 3 3 3 3 3 3 3 3 2 3
10 11 10 10 9 8 5 4 4 4 4 4 5 6 7 7 7 7 7 7 8 7 7 7 8 7 7 7 7 6 6 5 4 4 4 3 2 2 3 3 3 3 3 3 2 1 1 1 2
10 9 8 10 8 9 7 7 3 5 5 6 6 6 6 6 6 6 6 6 7 7 6 6 6 6 6 6 6 5 5 5 5 4 3 3 3 2 3 3 3 3 3 3 2 2 1 1 1
10 11 9 9 9 9 8 3 1 2 4 5 5 5 6 6 6 6 6 6 6 6 6 6 5 6 5 5 5 4 5 5 5 5 4 4 3 3 3 3 3 3 3 3 3 2 2 3 2
10 11 11 10 9 9 10 2 4 0 2 4 4 4 4 5 5 6 6 6 6 6 6 6 5 5 4 4 5 5 4 4 5 5 5 5 4 4 5 4 4 4 3 3 3 3 3 3 3
Wind_Direction
189 196 221 237 229 114 67 65 67 71 70 62 59 47 54 42 30 67 84 102 111 115 112 117 103 97 95 99 106 108 109 111 115 126 131 132 131 132 134 132 130 131 135 138 140 138 136 136 136
183 196 232 240 271 81 71 61 66 63 76 85 73 68 70 66 57 89 107 110 123 113 114 105 105 100 97 98 103 108 110 109 113 120 127 129 129 132 132 131 130 130 132 137 139 137 137 139 140
194 233 261 259 51 57 66 62 73 81 83 86 84 62 53 67 82 96 108 129 124 112 109 100 106 102 100 100 100 103 107 107 109 116 124 128 128 130 130 130 130 131 134 138 139 137 137 137 141
222 229 237 69 71 60 62 73 87 96 83 72 90 85 72 60 77 103 120 132 119 113 111 104 104 102 101 102 102 100 106 110 111 114 117 124 126 126 127 128 129 132 135 138 140 138 137 137 139
242 257 164 85 75 70 66 68 81 78 77 84 88 90 84 70 97 115 129 127 118 115 112 109 104 100 99 99 99 100 104 109 111 112 114 119 125 129 131 134 135 135 137 139 140 140 140 140 143
247 248 74 80 83 80 73 70 81 79 87 91 97 96 87 105 117 123 126 122 116 116 115 115 118 108 101 99 99 98 102 105 108 110 114 118 122 127 132 137 138 139 143 146 147 147 146 145 147
295 339 60 74 84 85 68 58 59 84 92 87 94 96 108 121 121 128 126 121 116 116 116 118 128 132 127 110 99 100 101 103 106 112 118 122 125 129 134 136 137 139 144 152 158 159 161 160 159
295 283 88 79 79 81 77 74 67 73 84 93 96 102 123 132 135 134 130 125 119 118 118 120 119 115 128 129 118 105 101 103 106 110 116 128 138 139 143 149 140 146 153 157 164 171 173 171 174
260 267 70 64 63 81 95 96 91 87 107 101 73 84 116 133 141 140 135 132 132 129 127 125 124 125 127 123 119 133 128 121 135 131 130 161 157 145 154 126 132 147 157 162 168 182 182 187 182
264 27 57 47 54 90 105 97 111 132 127 115 111 109 124 140 149 148 146 143 143 142 140 138 133 129 128 114 116 129 135 121 122 97 129 146 122 121 119 116 136 148 156 164 174 187 203 223 187
295 24 54 69 69 101 123 118 127 128 111 115 134 138 145 151 156 154 148 144 142 142 143 143 138 129 124 114 116 107 107 108 118 100 106 113 140 139 138 141 153 164 178 180 174 199 208 200 188
302 24 15 61 93 140 131 123 112 82 74 99 136 145 152 159 161 159 153 146 142 145 147 144 142 138 127 104 110 122 108 101 103 113 142 136 135 125 114 139 143 162 161 154 181 184 173 195 208
214 3 31 133 169 154 155 131 103 98 100 118 138 149 158 161 160 158 155 151 148 153 152 146 147 140 136 134 189 119 107 95 107 94 112 64 145 132 131 126 155 203 147 165 171 168 168 196 200
348 307 239 160 160 167 165 145 146 128 136 138 151 159 163 164 164 160 166 166 162 163 157 150 159 153 157 160 159 113 113 112 89 110 108 134 123 107 138 157 174 195 177 138 168 160 173 191 183
251 224 181 170 178 168 189 172 161 144 153 155 161 166 166 170 171 173 174 176 170 166 165 164 167 162 165 171 167 154 172 144 127 119 116 144 174 118 204 193 190 171 158 161 177 165 183 180 176
221 223 187 153 185 179 232 159 147 158 167 167 169 172 175 178 181 178 177 181 175 172 171 180 178 167 167 174 178 177 171 134 122 121 124 145 168 165 235 234 191 167 193 172 157 201 177 123 195
207 225 185 149 186 204 233 180 149 172 181 179 181 180 183 183 189 185 185 182 181 180 178 181 188 181 176 174 175 182 170 168 164 153 144 148 188 188 227 180 64 223 207 202 217 123 145 161 258
234 250 230 205 176 220 233 211 166 184 198 192 187 188 190 192 191 186 187 183 182 181 183 185 187 185 185 182 183 185 186 191 193 175 141 187 209 202 254 185 175 254 205 191 85 104 145 258 244
271 264 256 211 201 232 236 234 199 194 203 201 195 193 195 196 187 185 188 188 186 186 187 188 190 182 189 192 198 189 183 187 181 189 163 199 236 193 246 275 160 270 276 296 227 212 173 206 242
250 254 242 197 180 252 251 242 211 198 206 207 203 199 198 194 187 187 191 193 194 190 192 190 190 187 192 186 196 198 201 199 192 179 152 216 212 229 205 247 246 233 284 216 244 241 275 218 205
239 251 259 255 201 219 254 226 192 188 202 204 208 208 203 199 194 190 193 196 198 196 195 194 192 188 191 190 192 191 190 206 186 180 169 194 207 210 250 242 274 258 246 183 238 230 238 248 215
235 234 254 244 244 221 244 259 171 179 194 201 203 201 201 199 198 195 193 196 198 197 193 191 190 190 187 192 201 204 205 208 204 200 167 171 192 207 206 213 228 254 272 184 239 179 237 246 247
253 237 240 243 251 257 227 259 181 181 203 204 203 200 201 200 200 195 194 194 195 191 188 184 185 188 187 194 197 206 212 211 200 190 172 194 178 199 209 202 205 219 244 256 292 255 256 250 266
209 205 211 229 240 244 238 259 241 185 212 196 191 191 195 190 188 187 187 186 188 186 186 183 182 187 187 194 200 207 214 216 210 200 191 200 189 192 188 195 204 219 237 227 237 237 227 264 289
213 225 222 222 224 233 188 247 269 108 193 208 190 184 184 180 178 177 180 181 184 186 187 184 183 186 187 193 199 205 212 210 207 213 206 223 215 196 182 197 200 214 217 226 232 225 249 239 243
218 238 248 255 256 234 190 239 188 112 169 192 185 177 175 177 173 175 177 178 179 180 183 182 184 186 186 191 197 203 209 213 207 209 227 212 231 228 182 199 203 209 218 226 223 237 229 229 237
221 233 257 268 267 266 229 225 192 168 185 186 175 170 171 170 165 167 168 171 170 174 180 183 183 184 188 191 194 200 206 217 219 215 222 219 213 213 195 203 203 206 210 223 230 241 265 250 249
247 243 236 247 256 262 247 234 227 188 198 181 178 176 166 160 159 155 157 161 163 169 173 178 180 183 190 195 202 195 201 210 219 230 229 235 232 230 211 201 199 200 199 189 202 202 194 222 241
206 219 236 251 260 267 266 247 82 204 195 191 181 173 162 159 155 151 150 152 156 163 166 168 168 176 184 193 199 202 201 207 211 214 216 216 219 216 218 216 212 198 193 191 195 213 207 215 222
234 233 231 239 243 254 273 277 92 127 185 187 176 158 150 151 147 146 144 147 158 162 163 162 169 173 180 190 192 197 197 204 210 205 205 207 206 211 212 213 210 207 201 206 206 218 221 222 226